Year,Month,Day,Hour,Minute,Value (Times are PST for temperature in C)
2010,09,21,00,00,12.70
2010,09,21,00,01,12.70
2010,09,21,00,02,12.70
2010,09,21,00,03,12.70
2010,09,21,00,04,12.70
2010,09,21,00,05,12.70
2010,09,21,00,06,12.60
2010,09,21,00,07,12.60
2010,09,21,00,08,12.60
2010,09,21,00,09,12.60
2010,09,21,00,10,12.60
2010,09,21,00,11,12.60
2010,09,21,00,12,12.60
2010,09,21,00,13,12.60
2010,09,21,00,14,12.60
2010,09,21,00,15,12.60
2010,09,21,00,16,12.60
2010,09,21,00,17,12.60
2010,09,21,00,18,12.60
2010,09,21,00,19,12.60
2010,09,21,00,20,12.50
2010,09,21,00,21,12.60
2010,09,21,00,22,12.50
2010,09,21,00,23,12.50
2010,09,21,00,24,12.50
2010,09,21,00,25,12.50
2010,09,21,00,26,12.50
2010,09,21,00,27,12.50
2010,09,21,00,28,12.50
2010,09,21,00,29,12.50
2010,09,21,00,30,12.50
2010,09,21,00,31,12.50
2010,09,21,00,32,12.50
2010,09,21,00,33,12.50
2010,09,21,00,34,12.50
2010,09,21,00,35,12.50
2010,09,21,00,36,12.50
2010,09,21,00,37,12.50
2010,09,21,00,38,12.50
2010,09,21,00,39,12.50
2010,09,21,00,40,12.50
2010,09,21,00,41,12.40
2010,09,21,00,42,12.40
2010,09,21,00,43,12.40
2010,09,21,00,44,12.40
2010,09,21,00,45,12.40
2010,09,21,00,46,12.40
2010,09,21,00,47,12.40
2010,09,21,00,48,12.40
2010,09,21,00,49,12.40
2010,09,21,00,50,12.40
2010,09,21,00,51,12.40
2010,09,21,00,52,12.40
2010,09,21,00,53,12.40
2010,09,21,00,54,12.30
2010,09,21,00,55,12.30
2010,09,21,00,56,12.30
2010,09,21,00,57,12.30
2010,09,21,00,58,12.30
2010,09,21,00,59,12.30
2010,09,21,01,00,12.30
2010,09,21,01,01,12.30
2010,09,21,01,02,12.30
2010,09,21,01,03,12.30
2010,09,21,01,04,12.20
2010,09,21,01,05,12.20
2010,09,21,01,06,12.20
2010,09,21,01,07,12.20
2010,09,21,01,08,12.20
2010,09,21,01,09,12.10
2010,09,21,01,10,12.10
2010,09,21,01,11,12.10
2010,09,21,01,12,12.10
2010,09,21,01,13,12.00
2010,09,21,01,14,12.00
2010,09,21,01,15,12.00
2010,09,21,01,16,11.90
2010,09,21,01,17,11.90
2010,09,21,01,18,11.90
2010,09,21,01,19,11.90
2010,09,21,01,20,11.90
2010,09,21,01,21,11.90
2010,09,21,01,22,11.80
2010,09,21,01,23,11.80
2010,09,21,01,24,11.80
2010,09,21,01,25,11.80
2010,09,21,01,26,11.80
2010,09,21,01,27,11.80
2010,09,21,01,28,11.80
2010,09,21,01,29,11.80
2010,09,21,01,30,11.80
2010,09,21,01,31,11.80
2010,09,21,01,32,11.70
2010,09,21,01,33,11.70
2010,09,21,01,34,11.70
2010,09,21,01,35,11.70
2010,09,21,01,36,11.60
2010,09,21,01,37,11.60
2010,09,21,01,38,11.60
2010,09,21,01,39,11.50
2010,09,21,01,40,11.50
2010,09,21,01,41,11.40
2010,09,21,01,42,11.40
2010,09,21,01,43,11.40
2010,09,21,01,44,11.40
2010,09,21,01,45,11.30
2010,09,21,01,46,11.30
2010,09,21,01,47,11.30
2010,09,21,01,48,11.30
2010,09,21,01,49,11.30
2010,09,21,01,50,11.20
2010,09,21,01,51,11.20
2010,09,21,01,52,11.20
2010,09,21,01,53,11.20
2010,09,21,01,54,11.20
2010,09,21,01,55,11.10
2010,09,21,01,56,11.10
2010,09,21,01,57,11.10
2010,09,21,01,58,11.10
2010,09,21,01,59,11.00
2010,09,21,02,00,11.00
2010,09,21,02,01,11.00
2010,09,21,02,02,10.90
2010,09,21,02,03,10.90
2010,09,21,02,04,10.90
2010,09,21,02,05,10.90
2010,09,21,02,06,10.90
2010,09,21,02,07,10.80
2010,09,21,02,08,10.80
2010,09,21,02,09,10.80
2010,09,21,02,10,10.80
2010,09,21,02,11,10.80
2010,09,21,02,12,10.80
2010,09,21,02,13,10.70
2010,09,21,02,14,10.70
2010,09,21,02,15,10.70
2010,09,21,02,16,10.70
2010,09,21,02,17,10.70
2010,09,21,02,18,10.70
2010,09,21,02,19,10.70
2010,09,21,02,20,10.60
2010,09,21,02,21,10.60
2010,09,21,02,22,10.60
2010,09,21,02,23,10.60
2010,09,21,02,24,10.60
2010,09,21,02,25,10.60
2010,09,21,02,26,10.50
2010,09,21,02,27,10.50
2010,09,21,02,28,10.50
2010,09,21,02,29,10.50
2010,09,21,02,30,10.50
2010,09,21,02,31,10.50
2010,09,21,02,32,10.50
2010,09,21,02,33,10.50
2010,09,21,02,34,10.50
2010,09,21,02,35,10.50
2010,09,21,02,36,10.50
2010,09,21,02,37,10.50
2010,09,21,02,38,10.50
2010,09,21,02,39,10.40
2010,09,21,02,40,10.40
2010,09,21,02,41,10.40
2010,09,21,02,42,10.40
2010,09,21,02,43,10.40
2010,09,21,02,44,10.40
2010,09,21,02,45,10.40
2010,09,21,02,46,10.40
2010,09,21,02,47,10.40
2010,09,21,02,48,10.40
2010,09,21,02,49,10.40
2010,09,21,02,50,10.40
2010,09,21,02,51,10.40
2010,09,21,02,52,10.40
2010,09,21,02,53,10.40
2010,09,21,02,54,10.40
2010,09,21,02,55,10.30
2010,09,21,02,56,10.30
2010,09,21,02,57,10.30
2010,09,21,02,58,10.30
2010,09,21,02,59,10.30
2010,09,21,03,00,10.30
2010,09,21,03,01,10.30
2010,09,21,03,02,10.30
2010,09,21,03,06,10.30
2010,09,21,03,07,10.30
2010,09,21,03,08,10.30
2010,09,21,03,09,10.30
2010,09,21,03,10,10.30
2010,09,21,03,11,10.30
2010,09,21,03,12,10.20
2010,09,21,03,13,10.20
2010,09,21,03,14,10.20
2010,09,21,03,15,10.20
2010,09,21,03,16,10.20
2010,09,21,03,17,10.20
2010,09,21,03,18,10.20
2010,09,21,03,19,10.20
2010,09,21,03,20,10.20
2010,09,21,03,21,10.10
2010,09,21,03,22,10.10
2010,09,21,03,23,10.10
2010,09,21,03,24,10.10
2010,09,21,03,25,10.10
2010,09,21,03,26,10.10
2010,09,21,03,27,10.10
2010,09,21,03,28,10.10
2010,09,21,03,29,10.10
2010,09,21,03,30,10.00
2010,09,21,03,31,10.00
2010,09,21,03,32,10.00
2010,09,21,03,33,10.00
2010,09,21,03,34,10.00
2010,09,21,03,35,10.00
2010,09,21,03,36,10.00
2010,09,21,03,37,10.00
2010,09,21,03,38,10.00
2010,09,21,03,39,10.00
2010,09,21,03,40,10.00
2010,09,21,03,41,10.00
2010,09,21,03,42,10.00
2010,09,21,03,43,10.00
2010,09,21,03,44,10.00
2010,09,21,03,45,10.00
2010,09,21,03,46,10.00
2010,09,21,03,47,10.10
2010,09,21,03,48,10.10
2010,09,21,03,49,10.10
2010,09,21,03,50,10.10
2010,09,21,03,51,10.10
2010,09,21,03,52,10.10
2010,09,21,03,53,10.10
2010,09,21,03,54,10.10
2010,09,21,03,55,10.10
2010,09,21,03,56,10.10
2010,09,21,03,57,10.10
2010,09,21,03,58,10.10
2010,09,21,03,59,10.10
2010,09,21,04,00,10.10
2010,09,21,04,01,10.10
2010,09,21,04,02,10.10
2010,09,21,04,03,10.10
2010,09,21,04,04,10.10
2010,09,21,04,05,10.10
2010,09,21,04,06,10.10
2010,09,21,04,07,10.10
2010,09,21,04,08,10.10
2010,09,21,04,09,10.10
2010,09,21,04,10,10.10
2010,09,21,04,11,10.10
2010,09,21,04,12,10.10
2010,09,21,04,13,10.10
2010,09,21,04,14,10.10
2010,09,21,04,15,10.10
2010,09,21,04,16,10.10
2010,09,21,04,17,10.10
2010,09,21,04,18,10.10
2010,09,21,04,19,10.10
2010,09,21,04,20,10.10
2010,09,21,04,21,10.10
2010,09,21,04,22,10.10
2010,09,21,04,23,10.00
2010,09,21,04,24,10.00
2010,09,21,04,25,10.00
2010,09,21,04,26,10.00
2010,09,21,04,27,10.00
2010,09,21,04,28,9.90
2010,09,21,04,29,9.90
2010,09,21,04,30,9.90
2010,09,21,04,31,9.90
2010,09,21,04,32,9.90
2010,09,21,04,33,9.90
2010,09,21,04,34,9.90
2010,09,21,04,35,9.80
2010,09,21,04,36,9.80
2010,09,21,04,37,9.80
2010,09,21,04,38,9.70
2010,09,21,04,39,9.70
2010,09,21,04,40,9.60
2010,09,21,04,41,9.60
2010,09,21,04,42,9.60
2010,09,21,04,43,9.50
2010,09,21,04,44,9.50
2010,09,21,04,45,9.50
2010,09,21,04,46,9.50
2010,09,21,04,47,9.40
2010,09,21,04,48,9.40
2010,09,21,04,49,9.40
2010,09,21,04,50,9.40
2010,09,21,04,51,9.40
2010,09,21,04,52,9.40
2010,09,21,04,53,9.40
2010,09,21,04,54,9.40
2010,09,21,04,55,9.40
2010,09,21,04,56,9.40
2010,09,21,04,57,9.40
2010,09,21,04,58,9.40
2010,09,21,04,59,9.50
2010,09,21,05,00,9.50
2010,09,21,05,01,9.50
2010,09,21,05,02,9.50
2010,09,21,05,03,9.50
2010,09,21,05,04,9.50
2010,09,21,05,05,9.50
2010,09,21,05,06,9.50
2010,09,21,05,07,9.50
2010,09,21,05,08,9.50
2010,09,21,05,09,9.50
2010,09,21,05,10,9.50
2010,09,21,05,11,9.40
2010,09,21,05,12,9.40
2010,09,21,05,13,9.50
2010,09,21,05,14,9.50
2010,09,21,05,15,9.50
2010,09,21,05,16,9.40
2010,09,21,05,17,9.40
2010,09,21,05,18,9.40
2010,09,21,05,19,9.30
2010,09,21,05,20,9.30
2010,09,21,05,21,9.30
2010,09,21,05,22,9.20
2010,09,21,05,23,9.20
2010,09,21,05,24,9.20
2010,09,21,05,25,9.20
2010,09,21,05,26,9.10
2010,09,21,05,27,9.10
2010,09,21,05,28,9.10
2010,09,21,05,29,9.00
2010,09,21,05,30,9.00
2010,09,21,05,31,8.90
2010,09,21,05,32,8.90
2010,09,21,05,33,8.90
2010,09,21,05,34,8.80
2010,09,21,05,35,8.80
2010,09,21,05,36,8.80
2010,09,21,05,37,8.70
2010,09,21,05,38,8.70
2010,09,21,05,39,8.60
2010,09,21,05,40,8.60
2010,09,21,05,41,8.60
2010,09,21,05,42,8.60
2010,09,21,05,43,8.50
2010,09,21,05,44,8.50
2010,09,21,05,45,8.50
2010,09,21,05,46,8.40
2010,09,21,05,47,8.40
2010,09,21,05,48,8.40
2010,09,21,05,49,8.40
2010,09,21,05,50,8.30
2010,09,21,05,51,8.30
2010,09,21,05,52,8.30
2010,09,21,05,53,8.30
2010,09,21,05,54,8.30
2010,09,21,05,55,8.30
2010,09,21,05,56,8.30
2010,09,21,05,57,8.30
2010,09,21,05,58,8.20
2010,09,21,05,59,8.20
2010,09,21,06,00,8.20
2010,09,21,06,01,8.20
2010,09,21,06,02,8.20
2010,09,21,06,03,8.20
2010,09,21,06,04,8.20
2010,09,21,06,05,8.20
2010,09,21,06,06,8.20
2010,09,21,06,07,8.20
2010,09,21,06,08,8.20
2010,09,21,06,09,8.20
2010,09,21,06,10,8.20
2010,09,21,06,11,8.20
2010,09,21,06,12,8.30
2010,09,21,06,13,8.30
2010,09,21,06,14,8.30
2010,09,21,06,15,8.30
2010,09,21,06,16,8.30
2010,09,21,06,17,8.30
2010,09,21,06,18,8.30
2010,09,21,06,19,8.30
2010,09,21,06,20,8.30
2010,09,21,06,21,8.40
2010,09,21,06,22,8.40
2010,09,21,06,23,8.30
2010,09,21,06,24,8.30
2010,09,21,06,25,8.30
2010,09,21,06,26,8.30
2010,09,21,06,27,8.30
2010,09,21,06,28,8.30
2010,09,21,06,29,8.30
2010,09,21,06,30,8.30
2010,09,21,06,31,8.30
2010,09,21,06,32,8.30
2010,09,21,06,33,8.30
2010,09,21,06,34,8.30
2010,09,21,06,35,8.30
2010,09,21,06,36,8.30
2010,09,21,06,37,8.30
2010,09,21,06,38,8.30
2010,09,21,06,39,8.30
2010,09,21,06,40,8.20
2010,09,21,06,41,8.20
2010,09,21,06,42,8.20
2010,09,21,06,43,8.20
2010,09,21,06,44,8.20
2010,09,21,06,45,8.20
2010,09,21,06,46,8.20
2010,09,21,06,47,8.20
2010,09,21,06,48,8.20
2010,09,21,06,49,8.20
2010,09,21,06,50,8.20
2010,09,21,06,51,8.20
2010,09,21,06,52,8.20
2010,09,21,06,53,8.20
2010,09,21,06,54,8.20
2010,09,21,06,55,8.20
2010,09,21,06,56,8.20
2010,09,21,06,57,8.10
2010,09,21,06,58,8.10
2010,09,21,06,59,8.10
2010,09,21,07,00,8.10
2010,09,21,07,01,8.10
2010,09,21,07,02,8.10
2010,09,21,07,03,8.10
2010,09,21,07,04,8.10
2010,09,21,07,05,8.10
2010,09,21,07,06,8.10
2010,09,21,07,07,8.00
2010,09,21,07,08,8.00
2010,09,21,07,09,8.00
2010,09,21,07,10,8.00
2010,09,21,07,11,8.00
2010,09,21,07,12,8.00
2010,09,21,07,13,8.00
2010,09,21,07,14,8.00
2010,09,21,07,15,8.00
2010,09,21,07,16,8.00
2010,09,21,07,17,8.00
2010,09,21,07,18,8.00
2010,09,21,07,19,8.00
2010,09,21,07,20,8.00
2010,09,21,07,21,8.00
2010,09,21,07,22,8.00
2010,09,21,07,23,8.00
2010,09,21,07,24,8.00
2010,09,21,07,25,8.00
2010,09,21,07,26,8.00
2010,09,21,07,27,8.00
2010,09,21,07,28,8.00
2010,09,21,07,29,8.00
2010,09,21,07,30,8.00
2010,09,21,07,31,7.90
2010,09,21,07,32,7.90
2010,09,21,07,33,7.90
2010,09,21,07,34,7.90
2010,09,21,07,35,7.90
2010,09,21,07,36,7.90
2010,09,21,07,37,7.90
2010,09,21,07,38,7.90
2010,09,21,07,39,7.80
2010,09,21,07,40,7.80
2010,09,21,07,41,7.80
2010,09,21,07,42,7.80
2010,09,21,07,43,7.80
2010,09,21,07,44,7.80
2010,09,21,07,45,7.80
2010,09,21,07,46,7.80
2010,09,21,07,47,7.80
2010,09,21,07,48,7.80
2010,09,21,07,49,7.90
2010,09,21,07,50,7.90
2010,09,21,07,51,7.90
2010,09,21,07,52,7.90
2010,09,21,07,53,7.90
2010,09,21,07,54,7.90
2010,09,21,07,55,7.90
2010,09,21,07,56,8.00
2010,09,21,07,57,8.00
2010,09,21,07,58,8.00
2010,09,21,07,59,8.00
2010,09,21,08,00,8.10
2010,09,21,08,01,8.10
2010,09,21,08,02,8.10
2010,09,21,08,03,8.10
2010,09,21,08,04,8.10
2010,09,21,08,05,8.00
2010,09,21,08,06,8.10
2010,09,21,08,07,8.10
2010,09,21,08,08,8.10
2010,09,21,08,09,8.10
2010,09,21,08,10,8.10
2010,09,21,08,11,8.10
2010,09,21,08,12,8.10
2010,09,21,08,13,8.20
2010,09,21,08,14,8.20
2010,09,21,08,15,8.30
2010,09,21,08,16,8.30
2010,09,21,08,17,8.40
2010,09,21,08,18,8.50
2010,09,21,08,19,8.50
2010,09,21,08,20,8.60
2010,09,21,08,21,8.70
2010,09,21,08,22,8.80
2010,09,21,08,23,8.90
2010,09,21,08,24,9.00
2010,09,21,08,25,9.10
2010,09,21,08,26,9.10
2010,09,21,08,27,9.20
2010,09,21,08,28,9.30
2010,09,21,08,29,9.40
2010,09,21,08,30,9.50
2010,09,21,08,31,9.60
2010,09,21,08,32,9.70
2010,09,21,08,33,9.80
2010,09,21,08,34,9.90
2010,09,21,08,35,10.00
2010,09,21,08,36,10.00
2010,09,21,08,37,10.10
2010,09,21,08,38,10.10
2010,09,21,08,39,10.20
2010,09,21,08,40,10.20
2010,09,21,08,41,10.20
2010,09,21,08,42,10.30
2010,09,21,08,43,10.30
2010,09,21,08,44,10.30
2010,09,21,08,45,10.30
2010,09,21,08,46,10.30
2010,09,21,08,47,10.30
2010,09,21,08,48,10.30
2010,09,21,08,49,10.40
2010,09,21,08,50,10.40
2010,09,21,08,51,10.50
2010,09,21,08,52,10.50
2010,09,21,08,53,10.60
2010,09,21,08,54,10.70
2010,09,21,08,55,10.70
2010,09,21,08,56,10.80
2010,09,21,08,57,10.80
2010,09,21,08,58,10.80
2010,09,21,08,59,10.80
2010,09,21,09,00,10.80
2010,09,21,09,01,10.80
2010,09,21,09,02,10.80
2010,09,21,09,03,10.80
2010,09,21,09,04,10.80
2010,09,21,09,05,10.80
2010,09,21,09,06,10.80
2010,09,21,09,07,10.90
2010,09,21,09,08,10.90
2010,09,21,09,09,10.90
2010,09,21,09,10,11.00
2010,09,21,09,11,11.00
2010,09,21,09,12,11.00
2010,09,21,09,13,11.10
2010,09,21,09,14,11.10
2010,09,21,09,15,11.10
2010,09,21,09,16,11.10
2010,09,21,09,17,11.10
2010,09,21,09,18,11.20
2010,09,21,09,19,11.20
2010,09,21,09,20,11.30
2010,09,21,09,21,11.30
2010,09,21,09,22,11.30
2010,09,21,09,23,11.30
2010,09,21,09,24,11.30
2010,09,21,09,25,11.30
2010,09,21,09,26,11.30
2010,09,21,09,27,11.30
2010,09,21,09,28,11.30
2010,09,21,09,29,11.30
2010,09,21,09,30,11.30
2010,09,21,09,31,11.40
2010,09,21,09,32,11.40
2010,09,21,09,33,11.40
2010,09,21,09,34,11.40
2010,09,21,09,35,11.40
2010,09,21,09,36,11.50
2010,09,21,09,37,11.50
2010,09,21,09,38,11.60
2010,09,21,09,39,11.60
2010,09,21,09,40,11.70
2010,09,21,09,41,11.70
2010,09,21,09,42,11.60
2010,09,21,09,43,11.60
2010,09,21,09,44,11.60
2010,09,21,09,45,11.60
2010,09,21,09,46,11.60
2010,09,21,09,47,11.60
2010,09,21,09,48,11.60
2010,09,21,09,49,11.60
2010,09,21,09,50,11.70
2010,09,21,09,51,11.70
2010,09,21,09,52,11.80
2010,09,21,09,53,11.80
2010,09,21,09,54,11.90
2010,09,21,09,55,11.90
2010,09,21,09,56,11.90
2010,09,21,09,57,11.90
2010,09,21,09,58,11.80
2010,09,21,09,59,11.80
2010,09,21,10,00,11.80
2010,09,21,10,01,11.80
2010,09,21,10,02,11.80
2010,09,21,10,03,11.80
2010,09,21,10,04,11.80
2010,09,21,10,05,11.80
2010,09,21,10,06,11.80
2010,09,21,10,07,11.80
2010,09,21,10,08,11.80
2010,09,21,10,09,11.80
2010,09,21,10,10,11.90
2010,09,21,10,11,11.90
2010,09,21,10,12,12.00
2010,09,21,10,13,12.00
2010,09,21,10,14,12.10
2010,09,21,10,15,12.10
2010,09,21,10,16,12.20
2010,09,21,10,17,12.20
2010,09,21,10,18,12.20
2010,09,21,10,19,12.30
2010,09,21,10,20,12.30
2010,09,21,10,21,12.40
2010,09,21,10,22,12.40
2010,09,21,10,23,12.50
2010,09,21,10,24,12.50
2010,09,21,10,25,12.50
2010,09,21,10,26,12.60
2010,09,21,10,27,12.60
2010,09,21,10,28,12.70
2010,09,21,10,29,12.70
2010,09,21,10,30,12.70
2010,09,21,10,31,12.80
2010,09,21,10,32,12.80
2010,09,21,10,33,12.80
2010,09,21,10,34,12.80
2010,09,21,10,35,12.80
2010,09,21,10,36,12.80
2010,09,21,10,37,12.80
2010,09,21,10,38,12.80
2010,09,21,10,39,12.80
2010,09,21,10,40,12.90
2010,09,21,10,41,12.90
2010,09,21,10,42,12.80
2010,09,21,10,43,12.80
2010,09,21,10,44,12.80
2010,09,21,10,45,12.80
2010,09,21,10,46,12.80
2010,09,21,10,47,12.80
2010,09,21,10,48,12.80
2010,09,21,10,49,12.80
2010,09,21,10,50,12.80
2010,09,21,10,51,12.80
2010,09,21,10,52,12.80
2010,09,21,10,53,12.80
2010,09,21,10,54,12.90
2010,09,21,10,55,13.00
2010,09,21,10,56,13.00
2010,09,21,10,57,13.10
2010,09,21,10,58,13.00
2010,09,21,10,59,13.00
2010,09,21,11,00,13.00
2010,09,21,11,01,13.10
2010,09,21,11,02,13.10
2010,09,21,11,03,13.10
2010,09,21,11,04,13.10
2010,09,21,11,05,13.20
2010,09,21,11,06,13.20
2010,09,21,11,07,13.30
2010,09,21,11,08,13.30
2010,09,21,11,09,13.40
2010,09,21,11,10,13.40
2010,09,21,11,11,13.50
2010,09,21,11,12,13.60
2010,09,21,11,13,13.60
2010,09,21,11,14,13.70
2010,09,21,11,15,13.70
2010,09,21,11,16,13.80
2010,09,21,11,17,13.80
2010,09,21,11,18,13.90
2010,09,21,11,19,14.00
2010,09,21,11,20,14.10
2010,09,21,11,21,14.10
2010,09,21,11,22,14.20
2010,09,21,11,23,14.20
2010,09,21,11,24,14.20
2010,09,21,11,25,14.20
2010,09,21,11,26,14.20
2010,09,21,11,27,14.20
2010,09,21,11,28,14.20
2010,09,21,11,29,14.20
2010,09,21,11,30,14.30
2010,09,21,11,31,14.30
2010,09,21,11,32,14.30
2010,09,21,11,33,14.30
2010,09,21,11,34,14.30
2010,09,21,11,35,14.30
2010,09,21,11,36,14.40
2010,09,21,11,37,14.40
2010,09,21,11,38,14.40
2010,09,21,11,39,14.40
2010,09,21,11,40,14.40
2010,09,21,11,41,14.40
2010,09,21,11,42,14.40
2010,09,21,11,43,14.40
2010,09,21,11,44,14.50
2010,09,21,11,45,14.50
2010,09,21,11,46,14.50
2010,09,21,11,47,14.60
2010,09,21,11,48,14.60
2010,09,21,11,49,14.60
2010,09,21,11,50,14.60
2010,09,21,11,51,14.60
2010,09,21,11,52,14.50
2010,09,21,11,53,14.50
2010,09,21,11,54,14.50
2010,09,21,11,55,14.50
2010,09,21,11,56,14.50
2010,09,21,11,57,14.50
2010,09,21,11,58,14.50
2010,09,21,11,59,14.50
2010,09,21,12,00,14.50
2010,09,21,12,01,14.50
2010,09,21,12,02,14.60
2010,09,21,12,03,14.60
2010,09,21,12,04,14.70
2010,09,21,12,05,14.70
2010,09,21,12,06,14.80
2010,09,21,12,07,14.80
2010,09,21,12,08,14.90
2010,09,21,12,09,14.90
2010,09,21,12,10,14.90
2010,09,21,12,11,14.90
2010,09,21,12,12,14.90
2010,09,21,12,13,14.90
2010,09,21,12,14,14.90
2010,09,21,12,15,14.80
2010,09,21,12,16,14.80
2010,09,21,12,17,14.80
2010,09,21,12,18,14.80
2010,09,21,12,19,14.90
2010,09,21,12,20,14.90
2010,09,21,12,21,14.90
2010,09,21,12,22,14.80
2010,09,21,12,23,14.80
2010,09,21,12,24,14.90
2010,09,21,12,25,14.90
2010,09,21,12,26,15.00
2010,09,21,12,27,15.10
2010,09,21,12,28,15.10
2010,09,21,12,29,15.10
2010,09,21,12,30,15.20
2010,09,21,12,31,15.20
2010,09,21,12,32,15.20
2010,09,21,12,33,15.30
2010,09,21,12,34,15.30
2010,09,21,12,35,15.20
2010,09,21,12,36,15.30
2010,09,21,12,37,15.30
2010,09,21,12,38,15.30
2010,09,21,12,39,15.30
2010,09,21,12,40,15.40
2010,09,21,12,41,15.40
2010,09,21,12,42,15.40
2010,09,21,12,43,15.40
2010,09,21,12,44,15.40
2010,09,21,12,45,15.40
2010,09,21,12,46,15.40
2010,09,21,12,47,15.40
2010,09,21,12,48,15.40
2010,09,21,12,49,15.40
2010,09,21,12,50,15.40
2010,09,21,12,51,15.40
2010,09,21,12,52,15.40
2010,09,21,12,53,15.30
2010,09,21,12,54,15.30
2010,09,21,12,55,15.30
2010,09,21,12,56,15.30
2010,09,21,12,57,15.30
2010,09,21,12,58,15.30
2010,09,21,12,59,15.30
2010,09,21,13,00,15.30
2010,09,21,13,01,15.30
2010,09,21,13,02,15.20
2010,09,21,13,03,15.10
2010,09,21,13,04,15.00
2010,09,21,13,05,15.00
2010,09,21,13,06,14.90
2010,09,21,13,07,14.90
2010,09,21,13,08,14.80
2010,09,21,13,09,14.80
2010,09,21,13,10,14.80
2010,09,21,13,11,14.90
2010,09,21,13,12,14.90
2010,09,21,13,13,15.00
2010,09,21,13,14,15.00
2010,09,21,13,15,15.10
2010,09,21,13,16,15.10
2010,09,21,13,17,15.00
2010,09,21,13,18,15.00
2010,09,21,13,19,15.00
2010,09,21,13,20,15.00
2010,09,21,13,21,15.00
2010,09,21,13,22,15.00
2010,09,21,13,23,15.00
2010,09,21,13,24,15.00
2010,09,21,13,25,14.90
2010,09,21,13,26,14.90
2010,09,21,13,27,14.90
2010,09,21,13,28,14.90
2010,09,21,13,29,14.90
2010,09,21,13,30,15.00
2010,09,21,13,31,15.00
2010,09,21,13,32,15.00
2010,09,21,13,33,15.10
2010,09,21,13,34,15.10
2010,09,21,13,35,15.20
2010,09,21,13,36,15.20
2010,09,21,13,37,15.20
2010,09,21,13,38,15.20
2010,09,21,13,39,15.10
2010,09,21,13,40,15.10
2010,09,21,13,41,15.10
2010,09,21,13,42,15.10
2010,09,21,13,43,15.10
2010,09,21,13,44,15.20
2010,09,21,13,45,15.20
2010,09,21,13,46,15.20
2010,09,21,13,47,15.20
2010,09,21,13,48,15.20
2010,09,21,13,49,15.30
2010,09,21,13,50,15.30
2010,09,21,13,51,15.30
2010,09,21,13,52,15.30
2010,09,21,13,53,15.30
2010,09,21,13,54,15.30
2010,09,21,13,55,15.30
2010,09,21,13,56,15.20
2010,09,21,13,57,15.20
2010,09,21,13,58,15.20
2010,09,21,13,59,15.20
2010,09,21,14,00,15.20
2010,09,21,14,01,15.20
2010,09,21,14,02,15.20
2010,09,21,14,03,15.20
2010,09,21,14,04,15.20
2010,09,21,14,05,15.20
2010,09,21,14,06,15.20
2010,09,21,14,07,15.20
2010,09,21,14,08,15.30
2010,09,21,14,09,15.30
2010,09,21,14,10,15.30
2010,09,21,14,11,15.30
2010,09,21,14,12,15.30
2010,09,21,14,13,15.30
2010,09,21,14,14,15.30
2010,09,21,14,15,15.30
2010,09,21,14,16,15.40
2010,09,21,14,17,15.40
2010,09,21,14,18,15.40
2010,09,21,14,19,15.50
2010,09,21,14,20,15.50
2010,09,21,14,21,15.50
2010,09,21,14,22,15.50
2010,09,21,14,23,15.50
2010,09,21,14,24,15.50
2010,09,21,14,25,15.40
2010,09,21,14,26,15.40
2010,09,21,14,27,15.40
2010,09,21,14,28,15.50
2010,09,21,14,29,15.50
2010,09,21,14,30,15.50
2010,09,21,14,31,15.50
2010,09,21,14,32,15.50
2010,09,21,14,33,15.50
2010,09,21,14,34,15.60
2010,09,21,14,35,15.60
2010,09,21,14,36,15.60
2010,09,21,14,37,15.60
2010,09,21,14,38,15.60
2010,09,21,14,39,15.50
2010,09,21,14,40,15.50
2010,09,21,14,41,15.60
2010,09,21,14,42,15.60
2010,09,21,14,43,15.70
2010,09,21,14,44,15.70
2010,09,21,14,45,15.70
2010,09,21,14,46,15.70
2010,09,21,14,47,15.70
2010,09,21,14,48,15.70
2010,09,21,14,49,15.60
2010,09,21,14,50,15.60
2010,09,21,14,51,15.60
2010,09,21,14,52,15.70
2010,09,21,14,53,15.70
2010,09,21,14,54,15.70
2010,09,21,14,55,15.70
2010,09,21,14,56,15.70
2010,09,21,14,57,15.80
2010,09,21,14,58,15.80
2010,09,21,14,59,15.80
2010,09,21,15,00,15.80
2010,09,21,15,01,15.80
2010,09,21,15,02,15.80
2010,09,21,15,03,15.80
2010,09,21,15,04,15.80
2010,09,21,15,05,15.90
2010,09,21,15,06,16.00
2010,09,21,15,07,16.00
2010,09,21,15,08,16.00
2010,09,21,15,09,16.00
2010,09,21,15,10,16.10
2010,09,21,15,11,16.10
2010,09,21,15,12,16.20
2010,09,21,15,13,16.10
2010,09,21,15,14,16.10
2010,09,21,15,15,16.00
2010,09,21,15,16,16.00
2010,09,21,15,17,16.00
2010,09,21,15,18,16.00
2010,09,21,15,19,16.00
2010,09,21,15,20,16.00
2010,09,21,15,21,16.00
2010,09,21,15,22,16.00
2010,09,21,15,23,16.00
2010,09,21,15,24,16.00
2010,09,21,15,25,16.00
2010,09,21,15,26,16.00
2010,09,21,15,27,16.10
2010,09,21,15,28,16.20
2010,09,21,15,29,16.30
2010,09,21,15,30,16.30
2010,09,21,15,31,16.40
2010,09,21,15,32,16.40
2010,09,21,15,33,16.50
2010,09,21,15,34,16.50
2010,09,21,15,35,16.60
2010,09,21,15,36,16.70
2010,09,21,15,37,16.70
2010,09,21,15,38,16.70
2010,09,21,15,39,16.70
2010,09,21,15,40,16.60
2010,09,21,15,41,16.60
2010,09,21,15,42,16.60
2010,09,21,15,43,16.60
2010,09,21,15,44,16.60
2010,09,21,15,45,16.60
2010,09,21,15,46,16.60
2010,09,21,15,47,16.60
2010,09,21,15,48,16.70
2010,09,21,15,49,16.70
2010,09,21,15,50,16.80
2010,09,21,15,51,16.70
2010,09,21,15,52,16.70
2010,09,21,15,53,16.60
2010,09,21,15,54,16.60
2010,09,21,15,55,16.60
2010,09,21,15,56,16.60
2010,09,21,15,57,16.60
2010,09,21,15,58,16.60
2010,09,21,15,59,16.50
2010,09,21,16,00,16.50
2010,09,21,16,01,16.40
2010,09,21,16,02,16.30
2010,09,21,16,03,16.30
2010,09,21,16,04,16.30
2010,09,21,16,05,16.30
2010,09,21,16,06,16.30
2010,09,21,16,07,16.30
2010,09,21,16,08,16.30
2010,09,21,16,09,16.30
2010,09,21,16,10,16.30
2010,09,21,16,11,16.30
2010,09,21,16,12,16.40
2010,09,21,16,13,16.40
2010,09,21,16,14,16.40
2010,09,21,16,15,16.30
2010,09,21,16,16,16.30
2010,09,21,16,17,16.30
2010,09,21,16,18,16.40
2010,09,21,16,19,16.40
2010,09,21,16,20,16.40
2010,09,21,16,21,16.50
2010,09,21,16,22,16.50
2010,09,21,16,23,16.50
2010,09,21,16,24,16.50
2010,09,21,16,25,16.50
2010,09,21,16,26,16.50
2010,09,21,16,27,16.40
2010,09,21,16,28,16.40
2010,09,21,16,29,16.50
2010,09,21,16,30,16.50
2010,09,21,16,31,16.40
2010,09,21,16,32,16.40
2010,09,21,16,33,16.40
2010,09,21,16,34,16.40
2010,09,21,16,35,16.40
2010,09,21,16,36,16.40
2010,09,21,16,37,16.40
2010,09,21,16,38,16.50
2010,09,21,16,39,16.50
2010,09,21,16,40,16.50
2010,09,21,16,41,16.60
2010,09,21,16,42,16.50
2010,09,21,16,43,16.50
2010,09,21,16,44,16.50
2010,09,21,16,45,16.40
2010,09,21,16,46,16.40
2010,09,21,16,47,16.40
2010,09,21,16,48,16.40
2010,09,21,16,49,16.40
2010,09,21,16,50,16.40
2010,09,21,16,51,16.40
2010,09,21,16,52,16.40
2010,09,21,16,53,16.40
2010,09,21,16,54,16.40
2010,09,21,16,55,16.40
2010,09,21,16,56,16.40
2010,09,21,16,57,16.40
2010,09,21,16,58,16.40
2010,09,21,16,59,16.40
2010,09,21,17,00,16.50
2010,09,21,17,01,16.50
2010,09,21,17,02,16.50
2010,09,21,17,03,16.50
2010,09,21,17,04,16.50
2010,09,21,17,05,16.50
2010,09,21,17,06,16.50
2010,09,21,17,07,16.50
2010,09,21,17,08,16.40
2010,09,21,17,09,16.40
2010,09,21,17,10,16.40
2010,09,21,17,11,16.50
2010,09,21,17,12,16.50
2010,09,21,17,13,16.60
2010,09,21,17,14,16.70
2010,09,21,17,15,16.70
2010,09,21,17,16,16.80
2010,09,21,17,17,16.80
2010,09,21,17,18,16.80
2010,09,21,17,19,16.70
2010,09,21,17,20,16.70
2010,09,21,17,21,16.70
2010,09,21,17,22,16.60
2010,09,21,17,23,16.60
2010,09,21,17,24,16.60
2010,09,21,17,25,16.60
2010,09,21,17,26,16.50
2010,09,21,17,27,16.50
2010,09,21,17,28,16.40
2010,09,21,17,29,16.40
2010,09,21,17,30,16.40
2010,09,21,17,31,16.30
2010,09,21,17,32,16.30
2010,09,21,17,33,16.30